Temperature
23 23 23 23 22 22 22 23 23 24 24 24 24 23 22 21 20 19 19 18 18 18 18 18 18 18 18 18 17 17 17 17 17 16 16 16 16 15 15 15 15 14 14 14
23 23 23 22 23 22 22 23 23 23 24 25 23 23 22 21 20 20 19 19 18 18 18 18 18 18 18 18 17 17 17 17 17 16 16 16 16 15 15 15 15 14 14 14
23 23 23 23 23 23 23 23 23 23 24 24 24 23 22 21 20 20 19 19 19 19 18 18 18 18 18 18 17 17 17 17 17 16 16 16 15 15 15 15 15 15 14 14
23 23 22 24 24 23 23 24 24 24 24 24 23 22 21 20 20 20 19 19 19 19 19 18 18 18 18 17 17 17 17 17 17 16 16 16 15 15 15 15 15 15 14 14
23 22 23 24 24 23 23 24 25 24 24 23 22 22 22 20 20 20 20 19 19 19 19 18 18 18 18 17 17 17 17 17 16 16 16 16 16 15 15 15 15 14 14 14
22 22 22 24 24 23 24 24 25 24 24 23 22 24 23 20 20 19 19 19 19 19 18 18 18 18 17 17 17 17 17 16 16 16 16 16 15 15 15 15 14 14 14 14
22 22 23 24 23 22 23 24 24 23 23 23 23 24 22 20 19 19 19 19 19 19 18 18 18 18 17 17 17 16 16 16 16 16 16 15 15 15 15 14 14 14 14 14
22 22 23 23 22 24 25 24 23 23 22 22 22 21 20 19 19 19 19 19 19 18 18 18 18 17 17 17 17 16 16 16 16 16 16 15 15 15 15 14 14 14 13 13
23 23 23 21 22 22 22 22 22 22 21 21 20 20 19 19 19 19 19 19 19 18 18 18 18 17 17 17 17 16 16 16 16 15 15 15 15 14 14 14 14 13 13 13
22 23 22 21 21 20 20 21 21 20 20 20 20 20 19 19 19 19 19 19 18 18 18 17 17 17 17 16 16 16 16 16 15 15 15 15 14 14 14 14 13 13 13 12
22 23 21 20 20 20 20 20 20 20 20 20 20 19 19 19 18 18 18 18 18 18 17 17 17 16 16 16 16 16 15 15 15 15 14 14 14 14 14 13 13 13 13 12
23 23 23 22 20 20 20 20 20 19 19 19 19 19 19 19 18 18 18 18 17 17 17 17 16 16 16 16 15 15 15 15 15 14 14 14 14 13 13 13 13 13 12 12
21 21 21 20 19 19 19 19 19 19 19 19 18 18 19 18 18 18 17 17 17 17 17 16 16 16 16 16 15 15 15 15 14 14 14 14 13 13 13 13 12 12 12 12
19 19 19 19 19 19 19 19 19 18 18 18 18 18 18 18 17 17 17 17 17 16 16 16 16 16 15 15 15 15 14 14 14 14 14 13 13 13 12 12 12 12 12 11
18 18 18 18 18 18 18 18 18 18 17 17 18 18 18 17 17 17 17 16 16 16 16 15 15 15 15 15 15 14 14 14 14 13 13 13 12 12 12 11 11 11 11 11
18 17 17 17 17 17 17 17 17 17 17 17 17 17 17 17 16 16 16 16 15 15 15 15 15 15 14 14 14 14 14 14 13 13 13 12 12 12 11 11 11 10 10 10
17 17 17 17 17 17 17 17 17 17 16 16 16 16 16 16 16 15 15 15 15 15 15 14 14 14 14 14 14 14 13 13 13 12 12 12 11 11 11 10 10 10 10 10
17 17 17 17 17 16 16 16 16 16 16 16 16 15 15 15 15 15 15 14 14 14 14 14 14 14 13 13 13 13 13 12 12 12 11 11 11 11 10 10 9 9 9 9
16 16 16 16 16 16 16 16 16 15 15 15 15 15 15 14 14 14 14 14 14 13 13 13 13 13 13 13 12 12 12 12 11 11 11 11 10 10 10 9 9 8 8 8
15 15 15 15 15 15 15 15 15 15 15 14 14 14 14 13 13 13 13 13 13 13 13 12 12 12 12 12 12 11 11 11 11 10 10 10 9 9 9 9 8 8 8 8
14 14 14 14 14 14 14 14 14 14 14 14 14 13 13 13 13 13 12 12 12 12 12 12 12 11 11 11 11 11 10 10 10 10 9 9 9 8 8 8 8 7 7 7
13 13 13 13 13 13 13 13 13 13 13 13 13 13 12 12 12 12 12 11 11 11 11 11 11 11 11 10 10 10 9 9 9 9 9 8 8 8 7 7 7 7 6 6
12 12 12 12 12 12 12 12 12 12 12 12 12 12 12 11 11 11 11 11 10 10 10 10 10 10 10 9 9 9 8 8 8 8 8 8 7 7 7 6 6 6 6 5
11 11 11 11 11 11 11 11 11 11 11 11 11 11 11 11 10 10 10 10 10 10 10 9 9 9 9 8 8 8 8 8 7 7 7 7 6 6 6 6 5 5 5 5
11 11 11 11 10 10 10 10 10 10 10 10 10 10 10 10 10 9 9 9 9 9 9 8 8 8 8 8 7 7 7 7 7 7 6 6 6 5 5 5 5 4 4 4
10 10 10 10 10 10 10 10 9 9 9 9 9 9 9 9 9 8 8 8 8 8 8 8 7 7 7 7 7 6 6 6 6 6 5 5 5 5 4 4 4 4 3 3
9 9 9 9 9 9 9 9 9 9 9 9 8 8 8 8 8 8 7 7 7 7 7 7 7 6 6 6 6 5 5 5 5 5 5 4 4 4 4 3 3 3 3 3
Wind_Speed
3 2 4 6 7 9 10 8 6 4 5 5 3 1 2 5 8 9 10 11 12 12 11 11 10 10 10 9 9 8 8 8 7 7 6 6 6 6 5 5 5 4 4 4
5 4 5 6 8 10 11 10 10 9 8 3 2 2 3 6 9 10 10 11 12 12 12 12 12 11 10 9 9 9 9 8 7 6 6 6 6 6 5 5 5 4 4 5
5 4 5 7 7 9 8 9 9 8 5 2 2 2 3 6 9 10 10 11 11 12 12 12 12 11 11 10 10 10 9 8 7 7 7 7 6 6 6 6 5 5 5 5
5 5 7 2 1 5 8 9 10 9 6 4 3 2 2 4 8 9 9 10 10 10 10 10 11 10 10 10 10 10 9 8 8 7 7 7 7 7 6 6 5 5 5 5
6 7 7 4 4 5 6 7 8 9 7 4 3 4 4 4 6 7 8 9 8 9 9 10 10 10 10 10 10 9 9 9 8 8 8 8 7 7 7 6 6 6 6 6
7 8 7 4 3 4 5 6 5 7 6 5 6 5 3 4 5 6 6 7 7 8 8 9 9 10 10 10 10 10 9 9 9 8 8 8 8 7 6 6 6 6 6 6
11 10 7 2 4 6 6 2 2 5 6 8 7 2 4 5 5 5 6 7 7 8 8 8 9 10 10 9 9 9 8 8 8 8 8 8 7 6 6 6 6 6 6 6
10 10 8 5 7 7 3 1 1 3 5 7 5 4 5 6 6 6 7 7 8 7 7 7 8 9 9 9 8 7 7 7 7 7 6 6 7 6 6 6 6 6 6 5
9 7 2 5 6 4 3 3 3 3 4 6 6 6 6 6 6 6 7 7 6 7 7 7 7 8 8 7 7 7 7 7 7 7 6 6 7 7 6 6 6 5 5 5
8 8 7 6 7 6 6 6 5 4 5 7 8 7 7 7 6 6 6 6 6 7 7 6 6 6 6 6 7 7 7 7 6 6 6 6 5 5 5 5 5 5 5 5
10 8 5 6 7 5 4 4 4 4 6 7 8 8 8 7 7 6 6 6 6 6 6 6 6 6 5 6 7 7 7 6 6 6 6 6 5 4 5 5 4 5 5 5
9 8 6 5 4 4 3 4 4 5 6 7 7 8 8 7 7 6 6 6 6 6 6 6 6 5 5 5 6 6 6 6 5 5 5 5 5 4 2 2 2 3 3 4
6 3 3 2 3 3 3 3 3 5 6 7 7 7 8 7 6 6 6 6 6 6 6 6 5 5 5 5 5 6 6 5 4 5 5 5 5 5 4 3 3 3 3 3
5 4 4 5 4 4 3 3 4 5 5 6 7 7 7 7 7 6 6 5 5 6 5 5 5 4 4 4 5 5 5 4 4 4 5 5 5 5 4 4 4 3 3 4
9 8 6 4 4 4 4 5 5 5 6 7 7 7 7 7 7 6 5 5 6 6 5 5 4 4 3 4 4 5 4 4 4 4 4 4 4 4 4 4 4 3 2 3
9 8 7 7 7 7 7 7 7 6 7 7 7 7 7 7 7 6 6 6 6 6 5 4 4 3 3 4 4 3 3 3 3 4 4 4 4 4 4 4 4 3 3 3
11 10 10 10 10 9 8 7 7 7 7 7 7 7 8 8 7 6 5 5 5 4 4 4 3 3 3 4 4 3 3 3 4 4 4 4 4 4 4 4 4 4 4 3
12 11 11 12 10 9 8 7 7 7 7 7 7 8 8 8 7 6 6 5 5 4 3 3 3 3 3 3 3 3 3 3 3 4 3 3 3 3 4 4 4 4 3 3
9 9 9 9 9 8 7 7 7 7 7 8 8 8 7 7 6 6 6 5 5 4 2 2 2 3 3 2 2 3 3 3 3 3 3 3 4 3 3 4 4 4 3 3
8 8 8 8 8 8 7 7 7 7 7 8 8 7 7 6 6 6 6 4 3 2 2 2 2 2 2 2 2 3 3 3 3 3 3 3 4 4 4 4 4 4 3 3
7 8 8 7 7 7 7 7 8 8 8 8 9 8 7 6 6 6 5 4 3 3 2 2 2 2 2 2 2 3 3 3 3 3 3 3 3 3 3 3 3 3 3 4
6 7 7 7 7 6 6 7 7 8 8 8 8 8 8 7 6 5 4 3 3 3 2 2 1 2 1 1 2 2 2 2 2 2 2 2 3 3 3 3 3 3 3 3
6 6 7 7 7 7 7 7 7 8 8 8 8 8 7 6 4 4 3 3 3 2 2 1 2 2 1 1 2 2 2 2 2 2 2 2 2 3 3 3 3 3 3 3
6 6 7 7 8 8 8 7 7 6 7 7 6 6 6 5 3 2 2 4 3 3 2 3 3 2 1 1 1 1 1 1 1 1 1 2 2 2 2 2 2 2 3 3
6 7 8 8 8 7 7 8 8 7 7 5 6 5 4 3 3 3 3 3 4 3 2 3 3 2 1 1 1 1 1 0 1 1 1 1 1 2 2 2 2 2 3 3
6 6 6 6 6 6 6 6 6 5 5 5 4 4 3 3 4 4 3 3 4 3 2 2 2 2 1 1 1 1 1 1 1 0 0 1 1 1 2 2 3 2 2 3
6 6 5 5 5 5 6 6 6 5 5 5 5 4 4 4 4 4 4 3 3 3 2 2 2 2 1 1 1 1 1 1 1 1 1 1 1 1 2 2 2 2 2 2
Wind_Direction
255 253 220 226 222 217 228 250 267 287 295 301 318 290 181 168 168 171 175 180 184 187 188 188 190 192 192 192 191 188 189 193 198 197 194 192 185 190 190 192 200 197 194 195
227 219 225 237 235 229 233 244 254 269 279 285 284 202 182 173 173 177 181 186 187 189 190 191 192 192 191 191 192 191 192 194 193 194 189 190 190 189 187 189 196 192 196 198
235 203 236 244 234 226 225 226 236 248 255 251 215 188 191 183 184 186 185 186 188 190 191 193 194 192 190 193 191 192 194 192 189 189 188 192 190 188 189 189 188 193 199 202
246 227 245 259 146 222 237 244 235 248 257 248 239 212 196 195 191 189 186 185 187 188 188 191 190 188 190 190 191 194 195 192 190 191 190 190 191 193 198 198 193 197 202 206
241 247 254 252 222 211 228 245 235 237 240 226 188 177 172 175 192 192 186 184 183 182 180 182 182 182 183 185 189 193 195 196 193 194 192 192 195 199 200 200 200 202 205 209
232 243 251 242 172 183 224 245 222 215 215 190 182 203 170 150 171 179 174 172 171 170 171 173 177 181 183 186 190 196 198 200 196 194 194 197 201 203 199 200 206 207 209 216
234 242 251 241 148 174 220 242 152 205 206 189 198 211 124 137 145 154 157 158 161 164 167 172 174 179 186 190 197 199 197 196 194 194 196 198 200 201 200 200 205 211 212 217
226 235 239 164 169 205 258 10 210 215 203 194 185 137 134 139 139 144 146 150 157 160 162 167 174 181 189 196 197 188 185 188 191 191 191 192 194 199 201 200 203 209 214 218
226 236 241 185 217 258 293 265 259 231 202 184 172 162 151 144 143 144 145 147 154 156 154 159 170 182 190 189 182 178 181 186 188 188 188 190 191 192 196 202 209 214 217 222
230 239 236 232 243 251 254 258 262 241 204 185 176 164 156 149 146 145 145 146 153 155 155 157 167 181 187 176 176 179 183 186 186 187 186 188 190 195 198 203 210 215 218 224
233 238 234 233 230 239 249 248 238 213 194 185 173 165 160 155 151 148 144 147 155 159 158 157 160 167 172 174 179 185 187 185 187 187 187 189 191 198 207 209 215 220 223 227
234 229 226 225 207 210 221 222 205 188 177 173 171 164 160 155 152 151 150 150 153 153 156 158 157 159 161 170 183 189 187 186 185 184 185 187 189 189 173 219 194 221 264 261
246 226 218 200 191 197 208 203 188 184 177 167 164 161 157 151 151 151 152 153 154 155 157 157 157 159 161 170 184 193 191 184 182 186 187 191 194 197 196 187 175 190 210 230
220 201 209 209 211 205 192 174 161 159 162 161 156 154 151 149 149 151 154 154 153 153 156 158 160 161 164 172 182 191 190 181 183 188 191 194 198 203 205 204 203 215 205 206
223 222 223 207 192 182 171 166 164 163 159 156 152 153 153 153 153 151 148 148 150 150 153 156 161 161 162 173 181 187 188 186 188 191 194 196 198 203 208 214 219 222 220 202
217 215 207 204 204 198 191 187 185 179 170 162 158 157 155 151 146 142 142 148 153 155 156 158 162 161 166 174 178 187 189 176 185 192 195 197 200 205 212 217 223 226 230 236
206 209 210 210 209 204 201 199 193 183 173 168 163 156 150 147 145 143 145 151 154 154 155 157 156 155 168 178 183 190 190 180 179 196 200 203 208 214 219 224 230 235 238 232
226 224 219 213 207 202 198 193 187 179 175 167 158 157 158 157 156 153 149 145 141 139 142 145 141 152 168 180 185 191 193 193 194 200 204 208 213 220 225 229 234 239 247 230
225 220 215 210 205 200 195 189 181 173 165 161 162 165 164 160 156 152 149 149 150 152 148 135 131 165 167 169 178 191 194 193 196 202 206 201 213 221 226 233 239 241 242 243
208 202 196 194 192 191 188 181 172 165 163 162 161 159 159 158 154 152 150 151 156 151 142 137 165 172 174 172 177 197 198 200 202 204 207 212 217 224 228 235 242 245 246 247
189 185 181 179 179 180 179 174 167 163 162 164 164 163 160 156 154 152 150 147 132 120 130 145 165 166 172 169 188 193 195 201 209 212 212 218 226 233 239 242 245 249 252 255
179 174 171 169 167 166 165 165 162 157 155 159 158 152 151 152 152 148 144 145 137 128 137 147 145 117 124 170 185 188 194 204 217 223 228 232 237 242 246 250 253 257 262 266
167 163 160 160 158 152 146 149 152 152 152 154 154 154 153 150 152 151 149 139 141 136 139 139 110 110 132 175 177 184 194 203 215 227 236 242 243 245 250 255 261 267 273 280
149 147 145 144 142 141 142 140 138 139 140 142 146 148 145 138 132 129 127 135 137 139 141 123 125 132 160 179 179 189 203 212 222 234 239 246 251 256 261 266 272 280 284 289
141 140 140 140 140 139 137 134 130 130 130 130 129 131 134 134 138 138 134 136 131 131 127 126 130 133 155 154 159 176 203 227 241 240 235 252 264 273 280 282 284 288 292 294
136 136 136 138 135 133 135 135 135 135 133 127 123 122 120 123 128 132 131 133 129 122 121 124 132 138 131 116 119 121 111 106 108 146 269 293 296 295 292 294 294 296 302 307
128 128 127 127 126 132 135 136 137 139 139 136 134 134 132 131 132 134 134 134 132 126 120 117 120 122 111 102 98 89 77 68 50 25 5 351 336 322 315 309 308 314 322 321
Height
1514 1516 1518 1519 1521 1522 1523 1519 1520 1516 1515 1512 1511 1514 1516 1518 1520 1523 1525 1528 1531 1534 1537 1540 1543 1546 1549 1551 1553 1555 1557 1559 1560 1562 1562 1563 1564 1564 1565 1565 1566 1566 1567 1567
1515 1515 1516 1518 1517 1517 1519 1518 1517 1516 1514 1509 1512 1514 1515 1517 1519 1521 1523 1526 1528 1531 1534 1537 1540 1543 1546 1548 1551 1553 1554 1556 1557 1559 1560 1560 1561 1562 1563 1563 1564 1564 1565 1565
1515 1514 1516 1518 1511 1512 1513 1512 1513 1513 1509 1509 1511 1513 1514 1515 1517 1519 1521 1523 1526 1528 1531 1534 1537 1540 1543 1545 1548 1550 1552 1553 1555 1556 1557 1558 1559 1560 1561 1561 1562 1562 1563 1563
1513 1516 1525 1509 1504 1506 1508 1507 1507 1507 1507 1509 1510 1512 1513 1514 1515 1517 1519 1521 1523 1526 1529 1531 1535 1537 1540 1543 1545 1547 1549 1550 1552 1553 1554 1555 1556 1557 1558 1559 1560 1560 1561 1561
1513 1516 1513 1506 1503 1505 1507 1505 1503 1504 1506 1508 1510 1511 1511 1512 1513 1515 1517 1519 1521 1524 1526 1529 1532 1535 1537 1540 1542 1544 1546 1547 1549 1550 1552 1553 1553 1555 1556 1557 1557 1558 1559 1559
1512 1517 1518 1504 1500 1503 1505 1505 1499 1502 1503 1506 1507 1506 1508 1510 1511 1513 1515 1517 1520 1522 1525 1527 1530 1532 1535 1537 1539 1541 1542 1544 1546 1547 1549 1550 1551 1552 1553 1554 1555 1555 1556 1556
1509 1511 1504 1497 1501 1504 1509 1502 1498 1500 1501 1503 1504 1504 1507 1508 1510 1511 1513 1515 1518 1520 1522 1525 1527 1530 1532 1534 1536 1538 1540 1542 1543 1544 1546 1547 1548 1549 1550 1551 1552 1552 1553 1553
1504 1509 1506 1497 1500 1499 1496 1496 1497 1499 1500 1502 1503 1505 1506 1507 1509 1510 1512 1514 1516 1518 1521 1523 1525 1527 1530 1531 1534 1535 1537 1539 1540 1542 1543 1544 1545 1546 1547 1548 1548 1549 1549 1550
1494 1496 1493 1495 1496 1496 1496 1497 1497 1498 1499 1501 1502 1504 1505 1506 1508 1509 1511 1513 1515 1517 1519 1521 1523 1525 1527 1529 1531 1532 1534 1536 1537 1539 1540 1541 1542 1543 1544 1544 1545 1545 1546 1546
1491 1490 1492 1493 1494 1494 1495 1495 1496 1496 1497 1499 1501 1502 1504 1506 1507 1509 1510 1512 1513 1515 1517 1519 1521 1523 1525 1527 1528 1530 1532 1533 1534 1536 1537 1538 1538 1539 1540 1541 1541 1542 1542 1542
1487 1487 1490 1490 1491 1492 1492 1493 1493 1494 1495 1497 1499 1501 1502 1504 1506 1508 1509 1511 1512 1514 1516 1517 1519 1521 1522 1524 1526 1527 1529 1530 1532 1533 1533 1534 1535 1536 1536 1537 1538 1538 1539 1539
1483 1483 1484 1486 1488 1489 1490 1491 1491 1492 1494 1495 1497 1499 1501 1503 1505 1506 1508 1510 1511 1513 1514 1516 1518 1519 1520 1522 1523 1525 1526 1527 1528 1529 1530 1531 1532 1533 1533 1534 1534 1535 1535 1535
1480 1482 1483 1484 1485 1487 1488 1489 1490 1491 1492 1493 1496 1498 1500 1501 1503 1505 1507 1508 1510 1511 1513 1514 1516 1517 1518 1520 1521 1522 1524 1524 1525 1526 1527 1528 1528 1529 1529 1530 1530 1530 1531 1531
1478 1480 1481 1482 1483 1485 1486 1487 1488 1489 1490 1492 1494 1496 1498 1500 1502 1503 1505 1506 1508 1509 1511 1512 1514 1515 1516 1517 1518 1520 1521 1522 1522 1523 1524 1524 1525 1525 1526 1526 1526 1526 1527 1527
1475 1477 1478 1479 1481 1482 1483 1485 1486 1488 1489 1491 1492 1494 1496 1498 1500 1501 1503 1504 1506 1508 1509 1510 1512 1513 1514 1515 1516 1517 1518 1519 1519 1520 1521 1521 1522 1522 1522 1522 1523 1523 1523 1523
1471 1473 1475 1476 1478 1479 1481 1482 1484 1486 1487 1488 1490 1492 1494 1496 1498 1499 1501 1502 1504 1505 1507 1508 1509 1510 1512 1513 1513 1514 1515 1516 1516 1517 1517 1518 1518 1518 1519 1519 1519 1519 1518 1518
1467 1468 1471 1473 1474 1476 1478 1480 1481 1483 1484 1486 1488 1490 1492 1494 1495 1497 1499 1500 1502 1503 1505 1506 1507 1508 1509 1510 1511 1511 1512 1512 1513 1514 1514 1514 1515 1515 1515 1515 1515 1515 1515 1514
1462 1463 1466 1468 1470 1472 1474 1476 1478 1480 1482 1484 1485 1487 1489 1491 1493 1494 1496 1498 1499 1501 1502 1503 1504 1505 1506 1507 1508 1508 1509 1509 1510 1510 1510 1511 1511 1511 1511 1511 1511 1511 1510 1510
1456 1459 1461 1463 1466 1468 1471 1473 1475 1477 1479 1481 1483 1485 1487 1489 1490 1492 1494 1495 1496 1498 1499 1500 1501 1502 1503 1504 1504 1505 1505 1506 1506 1506 1507 1507 1507 1507 1507 1507 1507 1507 1506 1505
1452 1454 1457 1459 1462 1465 1467 1469 1471 1474 1476 1478 1480 1482 1484 1486 1488 1490 1491 1492 1494 1495 1496 1497 1498 1499 1500 1501 1501 1502 1502 1502 1502 1503 1503 1503 1503 1503 1503 1503 1502 1502 1502 1501
1448 1450 1453 1455 1458 1461 1464 1466 1468 1470 1473 1475 1477 1479 1481 1484 1485 1487 1488 1490 1491 1492 1493 1494 1495 1496 1496 1497 1497 1498 1498 1499 1499 1499 1499 1499 1499 1499 1499 1498 1498 1498 1497 1496
1445 1447 1450 1452 1455 1458 1460 1463 1465 1467 1470 1472 1474 1476 1479 1481 1483 1484 1486 1487 1489 1490 1490 1491 1492 1493 1493 1493 1494 1494 1495 1495 1495 1495 1495 1495 1495 1495 1494 1494 1493 1493 1492 1492
1443 1445 1447 1450 1452 1455 1458 1460 1462 1465 1467 1469 1472 1474 1476 1478 1480 1482 1484 1486 1486 1487 1488 1489 1489 1490 1490 1490 1491 1491 1491 1492 1492 1492 1492 1491 1491 1491 1490 1489 1489 1488 1488 1487
1441 1443 1445 1448 1450 1453 1456 1458 1461 1463 1465 1468 1470 1472 1474 1476 1478 1480 1482 1483 1484 1485 1485 1486 1487 1487 1487 1487 1488 1488 1488 1488 1488 1488 1488 1488 1487 1487 1486 1485 1485 1484 1483 1482
1440 1442 1444 1447 1449 1452 1454 1457 1459 1462 1464 1466 1469 1471 1473 1475 1477 1478 1479 1480 1481 1482 1483 1484 1484 1484 1485 1485 1485 1485 1485 1485 1485 1485 1484 1484 1483 1483 1482 1482 1481 1480 1479 1478
1439 1441 1444 1446 1448 1451 1453 1456 1458 1460 1463 1465 1467 1470 1472 1473 1475 1476 1477 1478 1479 1480 1481 1481 1482 1482 1482 1482 1482 1482 1482 1482 1482 1481 1481 1480 1480 1479 1479 1478 1477 1476 1475 1474
1439 1441 1444 1446 1448 1450 1453 1455 1457 1460 1462 1464 1466 1468 1470 1472 1473 1474 1475 1476 1477 1478 1479 1479 1479 1480 1480 1480 1480 1480 1480 1480 1479 1479 1478 1478 1477 1476 1476 1475 1474 1473 1472 1470